sat.trackr.live / text

‹ back to catalog

STARLINK-1151

NORAD 45081 · 2020-006AP

PAYLOAD ACTIVE UNKNOWN

§ Identity

Operator
Country
US
Launch date
2020-01-29
Launch site
AFETR
Launch vehicle
Mass (kg)
RCS (m²)

Purposes: comms

External: N2YO · Heavens-Above · Gunter

§ Orbital elements

Epoch: 2026-05-24T22:28:53.711328Z

Period
91.39 min
Inclination
53.0490°
Eccentricity
0.0003435
Mean motion
15.75593198 rev/d
Perigee alt
340.6 km
Apogee alt
345.3 km
Semi-major
6,721.1 km
B*
4.7139e-4
RAAN
222.5443°
Arg perigee
323.3414°
Mean anomaly
36.7369°
Rev number
34,910

§ Raw data

STARLINK-11511 45081U 20006AP  26144.93673277  .00073406  00000+0  47139-3 0  99932 45081  53.0490 222.5443 0003435 323.3414  36.7369 15.75593198349102

JSON: /api/v1/satellites/45081 · /tle

For live sub-satellite position, see the globe view (requires WebGL).

§ Visibility from observer

Set your observer location to see the next 7 days of passes ≥ 10°. The values pass through the URL so the page stays shareable.

No JS? Fill the form by hand. The geolocation button needs JavaScript.